When you browse on this site, cookies collect data to enhance your experience and personalize the content and advertising you see.
Visit our Privacy Policy to learn more. By continuing to use the site, you agree to this use of cookies and data.
  • In Hungary
  • List of Countries
  • For 7 days
  • Water Temperature
  • Weather Map
  • News
  • Weather Widgets
  • user-avatar
    Login

    Hourly Weather Karben

    Today, 15 December, Sunday

    Time Temperature Precipitation Wind Pressure Humidity
    00:00 +5°C° 0 mm 3 mps 740 mmHg 84%
    01:00 +4°C° 0 mm 3 mps 740 mmHg 87%
    02:00 +5°C° 0.4 mm 3 mps 739 mmHg 89%
    03:00 +5°C° 0.4 mm 3 mps 738 mmHg 92%
    04:00 +6°C° 0.4 mm 4 mps 738 mmHg 94%
    05:00 +7°C° 1 mm 5 mps 737 mmHg 93%
    06:00 +8°C° 1 mm 5 mps 737 mmHg 91%
    07:00 +9°C° 1 mm 6 mps 736 mmHg 90%
    08:00 +9°C° 0.5 mm 6 mps 737 mmHg 88%
    09:00 +9°C° 0.5 mm 6 mps 738 mmHg 86%
    10:00 +9°C° 0.5 mm 6 mps 739 mmHg 84%
    11:00 +9°C° 0.3 mm 6 mps 740 mmHg 79%
    12:00 +9°C° 0.3 mm 5 mps 741 mmHg 74%
    13:00 +9°C° 0.3 mm 5 mps 741 mmHg 68%
    14:00 +8°C° 0 mm 4 mps 742 mmHg 69%
    15:00 +8°C° 0 mm 4 mps 743 mmHg 70%
    16:00 +7°C° 0 mm 4 mps 743 mmHg 70%
    17:00 +8°C° 0 mm 3 mps 744 mmHg 72%
    18:00 +8°C° 0 mm 3 mps 744 mmHg 74%
    19:00 +7°C° 0 mm 3 mps 745 mmHg 77%
    20:00 +7°C° 0 mm 2 mps 745 mmHg 78%
    21:00 +7°C° 0 mm 2 mps 745 mmHg 79%
    22:00 +7°C° 0 mm 2 mps 746 mmHg 80%
    23:00 +7°C° 0.1 mm 2 mps 746 mmHg 83%

    Tomorrow, 16 December, Monday

    Time Temperature Precipitation Wind Pressure Humidity
    00:00 +7°C° 0.1 mm 2 mps 746 mmHg 86%
    01:00 +7°C° 0.1 mm 2 mps 746 mmHg 89%
    02:00 +7°C° 0 mm 2 mps 746 mmHg 90%
    03:00 +7°C° 0 mm 2 mps 746 mmHg 91%
    04:00 +7°C° 0 mm 2 mps 746 mmHg 92%
    05:00 +7°C° 0.4 mm 2 mps 745 mmHg 93%
    06:00 +7°C° 0.4 mm 2 mps 745 mmHg 94%
    07:00 +7°C° 0.4 mm 2 mps 745 mmHg 95%
    08:00 +7°C° 0.2 mm 2 mps 745 mmHg 94%
    09:00 +8°C° 0.2 mm 2 mps 745 mmHg 93%
    10:00 +8°C° 0.2 mm 2 mps 745 mmHg 92%
    11:00 +9°C° 0 mm 2 mps 745 mmHg 87%
    12:00 +10°C° 0 mm 2 mps 745 mmHg 82%
    13:00 +10°C° 0 mm 3 mps 744 mmHg 77%
    14:00 +10°C° 0 mm 2 mps 744 mmHg 78%
    15:00 +10°C° 0 mm 2 mps 744 mmHg 79%
    16:00 +10°C° 0 mm 1 mps 744 mmHg 80%
    17:00 +10°C° 0 mm 1 mps 744 mmHg 79%
    18:00 +10°C° 0 mm 1 mps 744 mmHg 79%
    19:00 +10°C° 0 mm 1 mps 743 mmHg 79%
    20:00 +9°C° 0 mm 1 mps 743 mmHg 79%
    21:00 +8°C° 0 mm 2 mps 743 mmHg 80%
    22:00 +7°C° 0 mm 2 mps 743 mmHg 81%
    23:00 +7°C° 0 mm 2 mps 743 mmHg 80%

    Day after tomorrow, 17 December, Tuesday

    Time Temperature Precipitation Wind Pressure Humidity
    00:00 +8°C° 0 mm 1 mps 743 mmHg 80%
    01:00 +8°C° 0 mm 1 mps 743 mmHg 79%
    02:00 +8°C° 0 mm 1 mps 743 mmHg 79%
    03:00 +8°C° 0 mm 1 mps 743 mmHg 78%
    04:00 +8°C° 0 mm 1 mps 743 mmHg 77%
    05:00 +8°C° 0 mm 1 mps 743 mmHg 78%
    06:00 +8°C° 0 mm 1 mps 743 mmHg 80%
    07:00 +7°C° 0 mm 1 mps 743 mmHg 81%
    08:00 +8°C° 0 mm 1 mps 744 mmHg 81%
    09:00 +8°C° 0 mm 1 mps 744 mmHg 80%
    10:00 +7°C° 0 mm 2 mps 744 mmHg 80%
    11:00 +8°C° 0 mm 2 mps 744 mmHg 78%
    12:00 +9°C° 0 mm 1 mps 744 mmHg 76%
    13:00 +10°C° 0 mm 1 mps 744 mmHg 74%
    14:00 +10°C° 0 mm 1 mps 744 mmHg 76%
    15:00 +9°C° 0 mm 1 mps 745 mmHg 78%
    16:00 +9°C° 0 mm 1 mps 745 mmHg 80%
    17:00 +8°C° 0 mm 1 mps 745 mmHg 82%
    18:00 +8°C° 0 mm 1 mps 745 mmHg 83%
    19:00 +8°C° 0 mm 1 mps 746 mmHg 85%
    20:00 +7°C° 0 mm 2 mps 746 mmHg 84%
    21:00 +7°C° 0 mm 2 mps 746 mmHg 84%
    22:00 +7°C° 0 mm 2 mps 746 mmHg 84%
    23:00 +7°C° 0 mm 2 mps 746 mmHg 84%

    18 December, Wednesday

    Time Temperature Precipitation Wind Pressure Humidity
    00:00 +8°C° 0 mm 1 mps 746 mmHg 85%
    01:00 +7°C° 0 mm 1 mps 746 mmHg 85%
    02:00 +7°C° 0 mm 1 mps 746 mmHg 86%
    03:00 +7°C° 0 mm 1 mps 747 mmHg 87%
    04:00 +7°C° 0 mm 1 mps 747 mmHg 88%
    05:00 +6°C° 0 mm 2 mps 747 mmHg 89%
    06:00 +6°C° 0 mm 2 mps 747 mmHg 89%
    07:00 +5°C° 0 mm 2 mps 747 mmHg 89%
    08:00 +7°C° 0 mm 1 mps 748 mmHg 88%
    09:00 +7°C° 0 mm 1 mps 748 mmHg 87%
    10:00 +8°C° 0 mm 1 mps 748 mmHg 86%
    11:00 +9°C° 0 mm 1 mps 748 mmHg 83%
    12:00 +9°C° 0 mm 1 mps 748 mmHg 81%
    13:00 +10°C° 0 mm 1 mps 748 mmHg 79%
    14:00 +10°C° 0 mm 1 mps 748 mmHg 81%
    15:00 +9°C° 0 mm 1 mps 748 mmHg 84%
    16:00 +9°C° 0 mm 1 mps 748 mmHg 86%
    17:00 +8°C° 0 mm 1 mps 748 mmHg 87%
    18:00 +8°C° 0 mm 1 mps 747 mmHg 88%
    19:00 +8°C° 0 mm 1 mps 747 mmHg 89%
    20:00 +8°C° 0 mm 1 mps 747 mmHg 89%
    21:00 +7°C° 0 mm 1 mps 747 mmHg 89%
    22:00 +7°C° 0 mm 1 mps 747 mmHg 90%
    23:00 +7°C° 0 mm 1 mps 747 mmHg 90%

    19 December, Thursday

    Time Temperature Precipitation Wind Pressure Humidity
    00:00 +7°C° 0 mm 1 mps 747 mmHg 90%
    01:00 +7°C° 0 mm 1 mps 747 mmHg 90%
    02:00 +7°C° 0 mm 1 mps 746 mmHg 90%
    03:00 +6°C° 0 mm 1 mps 746 mmHg 91%
    04:00 +6°C° 0 mm 1 mps 746 mmHg 91%
    05:00 +5°C° 0 mm 0 mps 746 mmHg 92%
    06:00 +5°C° 0 mm 0 mps 746 mmHg 92%
    07:00 +4°C° 0 mm 0 mps 746 mmHg 92%
    08:00 +6°C° 0 mm 1 mps 746 mmHg 91%
    09:00 +6°C° 0 mm 1 mps 746 mmHg 89%
    10:00 +7°C° 0 mm 1 mps 746 mmHg 88%
    11:00 +7°C° 0 mm 1 mps 745 mmHg 84%
    12:00 +8°C° 0 mm 1 mps 745 mmHg 80%
    13:00 +8°C° 0 mm 0 mps 744 mmHg 76%
    14:00 +9°C° 0 mm 1 mps 744 mmHg 79%
    15:00 +8°C° 0 mm 1 mps 744 mmHg 83%
    16:00 +8°C° 0 mm 1 mps 743 mmHg 86%
    17:00 +7°C° 0 mm 1 mps 743 mmHg 88%
    18:00 +6°C° 0 mm 1 mps 743 mmHg 89%
    19:00 +6°C° 0 mm 1 mps 743 mmHg 91%
    20:00 +6°C° 0 mm 1 mps 742 mmHg 92%
    21:00 +5°C° 0 mm 1 mps 742 mmHg 92%
    22:00 +5°C° 0 mm 1 mps 742 mmHg 93%
    23:00 +5°C° 0 mm 1 mps 741 mmHg 93%

    20 December, Friday

    Time Temperature Precipitation Wind Pressure Humidity
    00:00 +5°C° 0 mm 1 mps 741 mmHg 93%
    01:00 +5°C° 0 mm 1 mps 740 mmHg 94%
    02:00 +5°C° 0 mm 1 mps 740 mmHg 94%
    03:00 +5°C° 0 mm 1 mps 739 mmHg 94%
    04:00 +4°C° 0 mm 1 mps 739 mmHg 94%
    05:00 +3°C° 0 mm 2 mps 738 mmHg 94%
    06:00 +3°C° 0 mm 2 mps 738 mmHg 95%
    07:00 +3°C° 0 mm 2 mps 738 mmHg 95%
    08:00 +4°C° 0 mm 2 mps 737 mmHg 94%
    09:00 +4°C° 0 mm 2 mps 737 mmHg 93%
    10:00 +5°C° 0 mm 2 mps 737 mmHg 92%
    11:00 +6°C° 0 mm 2 mps 736 mmHg 89%
    12:00 +6°C° 0 mm 2 mps 736 mmHg 87%
    13:00 +7°C° 0 mm 3 mps 735 mmHg 84%
    14:00 +7°C° 0 mm 2 mps 734 mmHg 86%
    15:00 +6°C° 0 mm 2 mps 733 mmHg 87%
    16:00 +6°C° 0 mm 2 mps 733 mmHg 88%
    17:00 +6°C° 0 mm 2 mps 732 mmHg 90%
    18:00 +5°C° 0 mm 2 mps 732 mmHg 91%
    19:00 +5°C° 0 mm 2 mps 732 mmHg 92%
    20:00 +5°C° 0 mm 2 mps 732 mmHg 92%
    21:00 +6°C° 0 mm 1 mps 732 mmHg 92%
    22:00 +6°C° 0 mm 1 mps 732 mmHg 93%
    23:00 +6°C° 0 mm 1 mps 732 mmHg 93%
    Show more